New Bern, NC

2:32 AM EST on January 19, 2017 (GMT -0500)
Craven County Regional

Weather History for KEWN - November, 2013

Change the Weather History Date:

Friday, November 1, 2013

  Actual Average Record
Temperature  
Mean Temperature 75 °F 59 °F  
Max Temperature 80 °F 71 °F 86 °F (1950)
Min Temperature 69 °F 48 °F 29 °F (1954)
Degree Days  
Heating Degree Days 0 7  
Month to date heating degree days 0 7  
Since 1 July heating degree days 76 124  
Cooling Degree Days 10 1  
Month to date cooling degree days 10 1  
Year to date cooling degree days 2000 1886  
Growing Degree Days 24 (Base 50)    
Moisture  
Dew Point 68 °F    
Average Humidity 81    
Maximum Humidity 93    
Minimum Humidity 69    
Precipitation  
Precipitation 0.10 in 0.11 in 1.66 in (1949)
Month to date precipitation 0.10 0.11  
Year to date precipitation 35.93 46.06  
Snow  
Snow 0.00 in - - ()
Month to date snowfall 0.0  
Since 1 July snowfall 0.0  
Snow Depth 0.00 in    
Sea Level Pressure  
Sea Level Pressure 29.85 in    
Wind  
Wind Speed 9 mph (SSW)    
Max Wind Speed 20 mph    
Max Gust Speed 31 mph    
Visibility 10 miles    
Events Rain    
T = Trace of Precipitation, MM = Missing Value Source: NWS Daily Summary

Daily Weather History Graph

Daily Weather History Graph

Search for Another Location

Airport or City:

Trip Planner

Search our weather history database for the weather conditions in past years. The results will help you decide how hot, cold, wet, or windy it might be!

Date:

Astronomy

Nov. 01, 2013 Rise Set
Actual Time 7:29 AM EDT 6:13 PM EDT
Civil Twilight 7:03 AM EDT 6:39 PM EDT
Nautical Twilight 6:33 AM EDT 7:09 PM EDT
Astronomical Twilight 6:03 AM EDT 7:39 PM EDT
Moon 5:23 AM EDT (11/1) 5:02 PM EDT (11/1)
Length of Visible Light 11h 36m
Length of Day
10h 44m
Waning Crescent, 4% of the Moon is Illuminated
Nov 1
Waning Crescent
Nov 3
New
Nov 10
First Quarter
Nov 17
Full
Nov 25
Last Quarter

Hourly Weather History & Observations

Time (EDT) Temp. Heat Index Dew Point Humidity Pressure Visibility Wind Dir Wind Speed Gust Speed Precip Events Conditions
12:54 AM 72.0 °F - 64.9 °F 78% 29.99 in 10.0 mi South 9.2 mph - N/A   Mostly Cloudy
1:54 AM 72.0 °F - 64.9 °F 78% 29.98 in 10.0 mi SSW 6.9 mph - N/A   Overcast
2:54 AM 73.0 °F - 64.0 °F 73% 29.94 in 10.0 mi SSW 9.2 mph - N/A   Overcast
3:54 AM 73.9 °F - 64.9 °F 73% 29.93 in 10.0 mi SSW 11.5 mph - N/A   Overcast
4:17 AM 69.8 °F - 66.2 °F 88% 29.93 in 4.0 mi SW 11.5 mph 20.7 mph 0.01 in Rain Rain
4:36 AM 69.8 °F - 66.2 °F 88% 29.91 in 10.0 mi South 10.4 mph 20.7 mph 0.03 in   Overcast
4:54 AM 69.1 °F - 66.0 °F 90% 29.89 in 10.0 mi South 10.4 mph 18.4 mph 0.03 in Rain Light Rain
5:54 AM 69.1 °F - 66.0 °F 90% 29.88 in 10.0 mi South 9.2 mph - N/A   Mostly Cloudy
6:54 AM 70.0 °F - 66.9 °F 90% 29.87 in 10.0 mi South 10.4 mph 19.6 mph N/A   Clear
7:54 AM 71.1 °F - 68.0 °F 90% 29.87 in 10.0 mi SSW 8.1 mph - N/A   Clear
8:54 AM 72.0 °F - 68.0 °F 87% 29.89 in 10.0 mi SSW 10.4 mph 17.3 mph N/A   Partly Cloudy
9:54 AM 73.9 °F - 68.0 °F 82% 29.90 in 10.0 mi SSW 9.2 mph - N/A   Clear
10:54 AM 75.0 °F - 68.0 °F 79% 29.88 in 10.0 mi SSW 11.5 mph - N/A   Clear
11:54 AM 77.0 °F - 69.1 °F 76% 29.87 in 10.0 mi SW 13.8 mph 19.6 mph N/A   Clear
12:54 PM 77.0 °F - 69.1 °F 76% 29.84 in 10.0 mi SSW 11.5 mph 19.6 mph N/A   Clear
1:54 PM 78.1 °F - 70.0 °F 76% 29.81 in 10.0 mi SSW 10.4 mph 19.6 mph N/A   Clear
2:54 PM 80.1 °F 82.9 °F 69.1 °F 69% 29.78 in 10.0 mi SSW 11.5 mph - N/A   Clear
3:54 PM 79.0 °F - 69.1 °F 72% 29.77 in 10.0 mi SSW 8.1 mph - N/A   Clear
4:54 PM 78.1 °F - 70.0 °F 76% 29.76 in 10.0 mi South 6.9 mph - N/A   Clear
5:54 PM 75.9 °F - 70.0 °F 82% 29.75 in 10.0 mi South 5.8 mph - N/A   Clear
6:54 PM 73.9 °F - 69.1 °F 85% 29.77 in 10.0 mi South 8.1 mph - N/A   Partly Cloudy
7:54 PM 73.0 °F - 68.0 °F 84% 29.79 in 10.0 mi South 8.1 mph - 0.01 in Rain Light Rain
8:54 PM 72.0 °F - 69.1 °F 91% 29.78 in 10.0 mi South 5.8 mph - 0.04 in Rain Light Rain
9:54 PM 72.0 °F - 69.1 °F 91% 29.78 in 10.0 mi South 8.1 mph - 0.00 in   Overcast
10:54 PM 72.0 °F - 69.1 °F 91% 29.78 in 10.0 mi SSW 6.9 mph - 0.01 in   Overcast
11:54 PM 72.0 °F - 69.1 °F 91% 29.76 in 10.0 mi SSW 4.6 mph - 0.00 in Rain Light Rain